Location: Appleton
(44.2618°N, 88.4157°W)
Time: 16:23:22
(UTC+00:00)

Tiros 1 - All Passes

Search period start: 26 February 2021 00:00
Search period end: 08 March 2021 00:00
Orbit: 630 x 664 km, 48.4° (Epoch: 25 February)

Date Brightness Start Highest point End Pass type
(mag) Time Alt. Az. Time Alt. Az. Time Alt. Az.
26 Feb - 09:49:31 10° S 09:52:35 17° SE 09:55:39 10° E visible
26 Feb - 11:29:24 10° SW 11:34:10 67° SSE 11:38:57 10° ENE visible
26 Feb - 13:11:47 10° W 13:16:31 56° N 13:21:16 10° ENE daylight
26 Feb - 14:54:27 10° WNW 14:59:13 58° N 15:03:56 10° E daylight
26 Feb - 16:36:47 10° WNW 16:41:31 61° SSW 16:46:12 10° SE daylight
26 Feb - 18:20:25 10° W 18:23:01 15° SW 18:25:37 10° SSW daylight
27 Feb - 10:13:52 10° SSW 10:18:11 34° SE 10:22:30 10° ENE visible
27 Feb - 11:55:20 10° WSW 12:00:10 77° NNW 12:05:00 10° ENE visible
27 Feb - 13:38:03 10° WNW 13:42:46 51° N 13:47:26 10° ENE daylight
27 Feb - 15:20:31 10° WNW 15:25:20 79° NNE 15:30:08 10° ESE daylight
27 Feb - 17:03:02 10° WNW 17:07:18 32° SW 17:11:30 10° SSE daylight
28 Feb - 08:59:37 10° S 09:02:26 16° SE 09:05:15 10° E visible
28 Feb - 10:39:13 10° SW 10:43:58 63° SSE 10:48:44 10° ENE visible
28 Feb - 12:21:33 10° W 12:26:18 57° N 12:31:04 10° ENE daylight
28 Feb - 14:04:14 10° WNW 14:08:59 57° N 14:13:42 10° E daylight
28 Feb - 15:46:34 10° WNW 15:51:20 65° SSW 15:56:03 10° SE daylight
28 Feb - 17:29:58 10° W 17:32:53 16° SW 17:35:45 10° S daylight
01 Mar - 09:23:47 10° SSW 09:28:01 31° SE 09:32:15 10° E visible
01 Mar - 11:05:07 10° WSW 11:09:57 81° NNW 11:14:47 10° ENE visible
01 Mar - 12:47:49 10° WNW 12:52:32 51° N 12:57:14 10° ENE daylight
01 Mar - 14:30:18 10° WNW 14:35:08 76° NNE 14:39:56 10° ESE daylight
01 Mar - 16:12:47 10° WNW 16:17:08 35° SW 16:21:26 10° SSE daylight
02 Mar - 08:09:47 10° SSE 08:12:18 14° SE 08:14:49 10° E visible
02 Mar - 09:49:04 10° SW 09:53:47 59° SSE 09:58:31 10° ENE visible
02 Mar - 11:31:19 10° W 11:36:04 59° NNW 11:40:51 10° ENE visible
02 Mar - 13:14:01 10° WNW 13:18:45 55° N 13:23:29 10° E daylight
02 Mar - 14:56:21 10° WNW 15:01:08 69° SSW 15:05:53 10° SE daylight
02 Mar - 16:39:35 10° W 16:42:44 18° SW 16:45:51 10° S daylight
03 Mar - 08:33:43 10° SSW 08:37:50 29° SE 08:41:59 10° E visible
03 Mar - 10:14:55 10° WSW 10:19:44 84° NNW 10:24:35 10° ENE visible
03 Mar - 11:57:35 10° WNW 12:02:18 51° N 12:07:00 10° ENE visible
03 Mar - 13:40:05 10° WNW 13:44:55 73° NNE 13:49:43 10° ESE daylight
03 Mar - 15:22:32 10° WNW 15:26:57 37° SW 15:31:21 10° SSE daylight
04 Mar - 07:19:59 10° SSE 07:22:09 13° SE 07:24:19 10° ESE night (unlit)
04 Mar - 08:58:54 10° SW 09:03:35 55° SSE 09:08:18 10° ENE visible
04 Mar - 10:41:05 10° W 10:45:51 60° NNW 10:50:38 10° ENE visible
04 Mar - 12:23:47 10° WNW 12:28:32 54° N 12:33:16 10° E daylight
04 Mar - 14:06:07 10° WNW 14:10:56 73° SSW 14:15:42 10° ESE daylight
04 Mar - 15:49:13 10° W 15:52:35 19° SW 15:55:55 10° S daylight
05 Mar - 07:43:40 10° SSW 07:47:40 27° SE 07:51:43 10° E visible
05 Mar - 09:24:43 10° WSW 09:29:32 88° NNW 09:34:22 10° ENE visible
05 Mar - 11:07:21 10° W 11:12:04 52° N 11:16:46 10° ENE visible
05 Mar - 12:49:53 10° WNW 12:54:42 70° NNE 12:59:30 10° ESE daylight
05 Mar - 14:32:17 10° WNW 14:36:47 40° SW 14:41:15 10° SSE daylight
06 Mar - 06:30:19 10° SSE 06:32:01 12° SE 06:33:43 10° ESE night (unlit)
06 Mar - 08:08:46 10° SW 08:13:23 52° SSE 08:18:04 10° ENE visible
06 Mar - 09:50:51 10° W 09:55:37 62° NNW 10:00:25 10° ENE visible
06 Mar - 11:33:34 10° WNW 11:38:18 54° N 11:43:01 10° E visible
06 Mar - 13:15:54 10° WNW 13:20:44 78° SSW 13:25:31 10° ESE daylight
06 Mar - 14:58:53 10° W 15:02:25 21° SW 15:05:57 10° S daylight
07 Mar - 06:53:38 10° SSW 06:57:30 25° SE 07:01:25 10° E night (unlit)
07 Mar - 08:34:30 10° WSW 08:39:18 88° SSE 08:44:09 10° ENE visible
07 Mar - 10:17:07 10° W 10:21:50 52° N 10:26:33 10° ENE visible
07 Mar - 11:59:40 10° WNW 12:04:29 68° NNE 12:09:16 10° E daylight
07 Mar - 13:42:02 10° WNW 13:46:37 43° SW 13:51:08 10° SE daylight
